CZ-6A DEB, 61424

Orbit data source: Space-Track

CZ-6A DEB, 61424 is space debris in LEO originally from a launch on Tue, 06 Aug 2024 UTC launched from the Taiyaun Space Center, China (TSC). Debris objects in space refer to the collection of defunct objects orbiting the Earth. Examples of debris include non-operational satellites, rocket bodies, and fragments generated from explosions, collisions, or faulty payload assembly.

Loading next visibility...
Identifier
61424, 2024-140YR
Orbit
LEO
Country
Flag of CNCN / PRC
Related business
Manufacturer
SAST
Mission
Spacecraft
Bus & Motor
Unknown
Mass
Unknown
Launch date (UTC)
2024-08-06 (2 years ago)
Launch vehicle
Unknown
Launch site
Taiyaun Space Center, China (TSC)
Object type
Payload
Rocket body
Debris
Shape & HBR
Unknown shape, 0.1 m
Radar Cross Section
Medium (>0.1 m² and <1 m²)

Expand to show TLE details & history
Last TLE update: 14 hours ago

TLE from 14 hours ago
0 CZ-6A DEB
1 61424U 24140YR  26171.25917975  .00000744  00000-0  19613-3 0  9998
2 61424  89.0072 271.4685 0069507 274.4527  84.8739 14.46629851 96343
Epoch: 2026-06-20T06:13Z
TLE epoch observation values (Epoch: 2026-06-20T06:13:13.130Z)
Latitude
-0.00005°
Longitude
-90.31258°
Altitude
735.69 km
Speed
7.489 km/s
True Right ascension
18h 05m 52s
True Declination
0° 00' 00"
Sunlit
Object was in full shadow at epoch
Visualization orbit readout
Latitude
Unknown
Longitude
Unknown
Altitude
Unknown
Speed
Unknown
Apparent Right ascension
Unknown
Apparent Declination
Unknown
Sunlit
N/A
Visualization observer readout
Local Sidereal Time
07:21:45
Azimuth
Unknown
Elevation
Unknown
Doppler factor
Unknown
Orbital elements
Apogee altitude
783.022 km
Perigee altitude
684.159 km
Semi-major axis
7,111.727 km
Eccentricity
0.00695
Inclination
89.0072°
RAAN
271.4685°
Arg. of periapsis
274.4527°
True anomaly
85.6678°
Mean anomaly
84.8739°
Eccentric anomaly
85.27079°
Mean motion
3.61893 °/min
Orbital period
99.48 mins
BSTAR
0.00019613
Loading maneuver chart data...
Computing Atmospheric mass density...
Loading historical data...
Loading historical data...
Loading historical data...
Loading historical data...
Loading historical data...
Loading historical data...
Loading historical data...

Documentation

Showing up to 5 results
|